Terminal Aerodrome Forecast
Issued by NWS

Home | Current Version | Previous Version | Text Only | Print | Product List | Glossary On
Versions: 1 2 3 4 5 6 7 8 9 10 11 12 13 14 15 16 17 18 19
000
FTUS46 KPDT 191401 AAB
TAFPSC
TAF AMD
KPSC 191401Z 1914/2012 VRB04KT 1/2SM FG VV002
      TEMPO 1915/1918 3SM -RA BR BKN009 OVC025
     FM191800 22009KT P6SM SCT050 BKN100
     FM200000 20006KT P6SM BKN070 OVC150
     FM201000 VRB04KT P6SM VCSH OVC050=

USA.gov is the U.S. government's official web portal to all federal, state and local government web resources and services.